Zurück zum Katalog

SL-12 DEB

LostHEO
NORAD 43543·DEBRIS·🇷🇺 Russia

Gestartet Mar 1, 2010 von Baikonur Cosmodrome

Loading…

Nächste Überflüge (nächste 24 Stunden)

TLE

VeraltetSource: Space-Track

Epoche: Aug 6, 2018, 18:51 UTC

1 43543U 10007AC  18218.78603953 -.00002964 +00000-0 -73475-2 0  9999
2 43543 066.0042 152.0259 5760804 041.7415 345.2026 04.19578599002860

Verfolge SL-12 DEB in Echtzeit mit AllMySat

Download on the App Store